Granada, Spain

3:18 AM CET en Noviembre 21, 2017 (GMT +0100)
Granada

Tiempo Historia de LEGR - Noviembre, 2017

Change the Weather History Date:

Miércoles, Noviembre 15, 2017

  Actual Average Record
Temperature  
Temperatura media 49 ° F -  
Temperatura máxima 67 ° F 57 ° F 72 ° F (2015)
Temperatura mínima 31 ° F 36 ° F 24 ° F (2004)
Degree Days  
Grados día de calefacción 16    
Moisture  
Punto de rocío 36 ° F    
Average Humidity 69    
Maximum Humidity 100    
Minimum Humidity 22    
Precipitación  
Precipitación 0.00 pul - - ()
Presión al nivel del mar  
Presión al nivel del mar 30.12 pul    
Viento  
Velocidad del viento 1 mph ()    
Velocidad máxima del viento 6 mph    
Max Gust Speed -    
Visibilidad 11.8 Millas    
Eventos      
Averages and records for this station are not official NWS values.
T = Trace of Precipitation, MM = Missing Value Source: Averaged Metar Reports

Daily Weather History Graph

Daily Weather History Graph

Search for Another Location

Airport or City:

Trip Planner

Search our weather history database for the weather conditions in past years. The results will help you decide how hot, cold, wet, or windy it might be!

Date:

Astronomía

Nov. 15, 2017 Salida Puesta
Hora real 7:54 AM CET 6:04 PM CET
Crepúsculo civil 7:26 AM CET 6:32 PM CET
Crepúsculo náutico 6:54 AM CET 7:04 PM CET
Crepúsculo astronómico 6:24 AM CET 7:35 PM CET
Luna 4:46 AM CET (11/15) 4:48 PM CET (11/15)
Horas de luz 11h 06m
Horas de luz
10h 10m
Creciente menguante, 9% of the Moon is Illuminated
Nov 15
Creciente menguante
Nov 18
Nueva
Nov 26
Cuarto creciente
Dic 3
Luna llena
Dic 10
Cuarto menguante

Hourly Weather History & Observations

Hora (CET) Temp. Punto de rocío Humedad Presión Visibilidad Wind Dir Velocidad del viento Velocidad de ráfagas Precip Eventos Condiciones
12:00 AM 40 ° F 36 ° F 82% 30.17 pul 16 mi Sin viento Sin viento - -  
12:00 AM 39.2 ° F 37.4 ° F 93% 30.12 pul 6.2 mi Sin viento Sin viento - N/A   Desconocido
12:30 AM 39.2 ° F 35.6 ° F 87% 30.12 pul 6.2 mi Sin viento Sin viento - N/A   Desconocido
1:00 AM 38 ° F 36 ° F 87% 30.19 pul 19 mi Sin viento Sin viento - -  
1:00 AM 39.2 ° F 35.6 ° F 87% 30.12 pul 6.2 mi Sin viento Sin viento - N/A   Desconocido
1:30 AM 37.4 ° F 35.6 ° F 93% 30.12 pul 6.2 mi Variable 2.3 mph - N/A   Desconocido
2:00 AM 39.2 ° F 33.8 ° F 81% 30.12 pul 6.2 mi Variable 1.2 mph - N/A   Desconocido
2:30 AM 37.4 ° F 33.8 ° F 87% 30.12 pul 6.2 mi Variable 1.2 mph - N/A   Desconocido
3:00 AM 36 ° F 32 ° F 81% 30.21 pul 12 mi Sin viento Sin viento - -  
3:00 AM 35.6 ° F 32.0 ° F 87% 30.12 pul 6.2 mi Sin viento Sin viento - N/A   Desconocido
3:30 AM 35.6 ° F 32.0 ° F 87% 30.12 pul 6.2 mi Sin viento Sin viento - N/A   Desconocido
4:00 AM 35 ° F 32 ° F 83% 30.21 pul 15 mi Sin viento Sin viento - -  
4:00 AM 35.6 ° F 32.0 ° F 87% 30.12 pul 6.2 mi Sin viento Sin viento - N/A   Desconocido
4:30 AM 35.6 ° F 32.0 ° F 87% 30.12 pul 6.2 mi Sin viento Sin viento - N/A   Desconocido
5:00 AM 35 ° F 32 ° F 85% 30.21 pul 15 mi Sur 2.3 mph - -  
5:00 AM 35.6 ° F 32.0 ° F 87% 30.12 pul 6.2 mi Variable 2.3 mph - N/A   Desconocido
5:30 AM 33.8 ° F 32.0 ° F 93% 30.12 pul 6.2 mi Sin viento Sin viento - N/A   Desconocido
6:00 AM 33 ° F 31 ° F 87% 30.22 pul 13 mi Sin viento Sin viento - -  
6:00 AM 33.8 ° F 30.2 ° F 87% 30.12 pul - Sin viento Sin viento - N/A   Despejado
6:30 AM 32.0 ° F 32.0 ° F 100% 30.12 pul - Variable 1.2 mph - N/A   Despejado
7:00 AM 32.0 ° F 30.2 ° F 93% 30.12 pul - Variable 1.2 mph - N/A   Despejado
7:30 AM 32.0 ° F 30.2 ° F 93% 30.15 pul - Variable 2.3 mph - N/A   Despejado
8:00 AM 33 ° F 31 ° F 87% 30.25 pul 16 mi OSO 2.3 mph - -   Despejado
8:00 AM 32.0 ° F 30.2 ° F 93% 30.15 pul - SO 1.2 mph - N/A   Despejado
8:30 AM 32.0 ° F 30.2 ° F 93% 30.15 pul - Sin viento Sin viento - N/A   Despejado
9:00 AM 38 ° F 33 ° F 74% 30.24 pul 8 mi Sin viento Sin viento - -  
9:00 AM 35.6 ° F 33.8 ° F 93% 30.15 pul - Sin viento Sin viento - N/A   Despejado
9:30 AM 41.0 ° F 35.6 ° F 81% 30.18 pul - Sin viento Sin viento - N/A   Despejado
10:00 AM 46 ° F 37 ° F 60% 30.21 pul 11 mi Sin viento Sin viento - -   Despejado
10:00 AM 42.8 ° F 35.6 ° F 76% 30.18 pul - Sin viento Sin viento - N/A   Despejado
10:30 AM 44.6 ° F 37.4 ° F 76% 30.18 pul - Sin viento Sin viento - N/A   Despejado
11:00 AM 52 ° F 38 ° F 47% 30.19 pul 16 mi Sin viento Sin viento - -  
11:00 AM 50.0 ° F 37.4 ° F 62% 30.18 pul - Sin viento Sin viento - N/A   Despejado
11:30 AM 51.8 ° F 35.6 ° F 54% 30.18 pul - Sin viento Sin viento - N/A   Despejado
12:00 PM 57 ° F 36 ° F 33% 30.15 pul 17 mi Norte 1.2 mph - -  
12:30 PM 57.2 ° F 37.4 ° F 48% 30.15 pul - Sin viento Sin viento - N/A   Despejado
1:00 PM 61 ° F 38 ° F 31% 30.10 pul 16 mi Norte 2.3 mph - -   Despejado
1:00 PM 59.0 ° F 39.2 ° F 48% 30.12 pul - Variable 1.2 mph - N/A   Despejado
1:30 PM 60.8 ° F 37.4 ° F 42% 30.09 pul - Variable 1.2 mph - N/A   Despejado
2:00 PM 64 ° F 38 ° F 26% 30.06 pul 19 mi NNO 2.3 mph - -   Despejado
2:00 PM 62.6 ° F 39.2 ° F 42% 30.09 pul - Variable 1.2 mph - N/A   Despejado
2:30 PM 64.4 ° F 39.2 ° F 40% 30.09 pul - Sin viento Sin viento - N/A   Despejado
3:00 PM 67 ° F 38 ° F 23% 30.03 pul 14 mi SSE 1.2 mph - -  
3:00 PM 66.2 ° F 39.2 ° F 37% 30.06 pul - Variable 1.2 mph - N/A   Despejado
3:30 PM 66.2 ° F 39.2 ° F 37% 30.06 pul - Sin viento Sin viento - N/A   Despejado
4:00 PM 64.4 ° F 39.2 ° F 40% 30.06 pul - NNO 3.5 mph - N/A   Despejado
4:30 PM 66.2 ° F 37.4 ° F 35% 30.06 pul - Variable 1.2 mph - N/A   Despejado
5:00 PM 67 ° F 37 ° F 22% 30.02 pul 19 mi Oeste 2.3 mph - -  
5:00 PM 66.2 ° F 39.2 ° F 37% 30.06 pul - Variable 1.2 mph - N/A   Despejado
5:30 PM 66.2 ° F 39.2 ° F 37% 30.06 pul - Sin viento Sin viento - N/A   Despejado
6:00 PM 61 ° F 42 ° F 39% 30.04 pul 19 mi Oeste 2.3 mph - -  
6:00 PM 60.8 ° F 42.8 ° F 52% 30.06 pul - Oeste 2.3 mph - N/A   Despejado
6:30 PM 55.4 ° F 41.0 ° F 58% 30.06 pul - Variable 2.3 mph - N/A   Despejado
7:00 PM 50.0 ° F 41.0 ° F 71% 30.06 pul - SSO 5.8 mph - N/A   Despejado
7:30 PM 50.0 ° F 41.0 ° F 71% 30.09 pul - Variable 1.2 mph - N/A   Despejado
8:00 PM 49 ° F 40 ° F 61% 30.11 pul 19 mi SO 2.3 mph - -  
8:00 PM 48.2 ° F 39.2 ° F 71% 30.09 pul - SO 2.3 mph - N/A   Despejado
8:30 PM 48.2 ° F 39.2 ° F 71% 30.09 pul - Sur 2.3 mph - N/A   Despejado
9:00 PM 45 ° F 38 ° F 70% 30.14 pul 14 mi Sin viento Sin viento - -  
9:00 PM 44.6 ° F 39.2 ° F 81% 30.09 pul - Sin viento Sin viento - N/A   Despejado
9:30 PM 42.8 ° F 37.4 ° F 81% 30.09 pul - Sin viento Sin viento - N/A   Despejado
10:00 PM 44 ° F 38 ° F 74% 30.16 pul 19 mi OSO 2.3 mph - -   Despejado
10:00 PM 44.6 ° F 41.0 ° F 87% 30.09 pul - Variable 1.2 mph - N/A   Despejado
10:30 PM 41.0 ° F 37.4 ° F 87% 30.12 pul - Sin viento Sin viento - N/A   Despejado
11:00 PM 41 ° F 36 ° F 78% 30.17 pul 13 mi SSO 1.2 mph - -  
11:00 PM 41.0 ° F 37.4 ° F 87% 30.12 pul - Variable 2.3 mph - N/A   Despejado
11:30 PM 39.2 ° F 35.6 ° F 87% 30.12 pul 6.2 mi SSE 1.2 mph - N/A   Desconocido